Location: Falniów
(50.3639°N, 19.9642°E)
Time: 20:25:25
(UTC+00:00)

SL-08 R/B - Pass Details

Date: 24 April 2026
Orbit: 667 x 728 km, 98.5° (Epoch: 13 May)

Event Time Altitude Azimuth Distance (km) Brightness Sun altitude
Rises 18:13:30 0° 24° (NNE) 3,163 6.7 -4.4°
Reaches altitude 10° 18:16:11 10° 38° (NE) 2,236 5.8 -4.8°
Maximum altitude 18:20:13 25° 93° (E) 1,459 4.5 -5.4°
Drops below altitude 10° 18:24:11 10° 148° (SSE) 2,213 5.4 -5.9°
Sets 18:26:49 0° 161° (SSE) 3,121 6.2 -6.3°
